| time (UTC) | temp C | wind direction | speed KPH | gust KPH | rain 1hr cm | rain 24hr cm | rain mn cm | humidity % | barometer mb |
| 20260506072503 | 7 | 119 | 4.8 | 12.9 | 0.05 | 0.13 | 0.13 | 94 | 1015.8 |
| 20260506072003 | 7 | 120 | 3.2 | 12.9 | 0.08 | 0.13 | 0.13 | 94 | 1015.8 |
| 20260506071719 | 7 | 119 | 3.2 | 12.9 | 0.08 | 0.13 | 0.13 | 94 | 1015.8 |
| 20260506071003 | 7 | 109 | 3.2 | 14.5 | 0.08 | 0.10 | 0.10 | 94 | 1015.7 |
| 20260506070503 | 7 | 111 | 3.2 | 14.5 | 0.08 | 0.10 | 0.10 | 93 | 1015.8 |
| 20260506062503 | 7 | 109 | 3.2 | 11.3 | 0.05 | 0.05 | 0.05 | 93 | 1015.5 |
| 20260506062218 | 7 | 110 | 3.2 | 9.7 | 0.05 | 0.05 | 0.05 | 92 | 1015.4 |
| 20260506061503 | 7 | 108 | 4.8 | 12.9 | 0.05 | 0.05 | 0.05 | 92 | 1015.4 |
| 20260506061003 | 7 | 110 | 3.2 | 12.9 | 0.03 | 0.03 | 0.03 | 92 | 1015.3 |
| 20260506060503 | 7 | 97 | 3.2 | 16.1 | 0.03 | 0.03 | 0.03 | 92 | 1015.3 |
| 20260506051219 | 7 | 97 | 3.2 | 12.9 | 0.00 | 0.00 | 0.00 | 88 | 1015.3 |
| 20260506050503 | 7 | 101 | 4.8 | 11.3 | 0.00 | 0.00 | 0.00 | 87 | 1015.2 |
| 20260506050217 | 7 | 103 | 4.8 | 11.3 | 0.00 | 0.00 | 0.00 | 87 | 1015.3 |
| 20260506045003 | 7 | 108 | 4.8 | 17.7 | 0.00 | 0.00 | 0.00 | 86 | 1015.2 |
| 20260506044503 | 7 | 107 | 4.8 | 14.5 | 0.00 | 0.00 | 0.00 | 86 | 1015.2 |
| 20260506044217 | 7 | 104 | 4.8 | 16.1 | 0.00 | 0.00 | 0.00 | 86 | 1015.3 |
| 20260506043503 | 7 | 102 | 4.8 | 17.7 | 0.00 | 0.00 | 0.00 | 86 | 1015.3 |
| 20260506043003 | 7 | 104 | 4.8 | 11.3 | 0.00 | 0.00 | 0.00 | 86 | 1015.3 |
| 20260506042503 | 7 | 105 | 4.8 | 12.9 | 0.00 | 0.00 | 0.00 | 86 | 1015.3 |
| 20260506042003 | 7 | 104 | 4.8 | 12.9 | 0.00 | 0.00 | 0.00 | 86 | 1015.3 |
| 20260506041503 | 7 | 107 | 4.8 | 16.1 | 0.00 | 0.00 | 0.00 | 86 | 1015.3 |
| 20260506041003 | 7 | 105 | 4.8 | 16.1 | 0.00 | 0.00 | 0.00 | 86 | 1015.4 |
| 20260506040716 | 7 | 104 | 4.8 | 16.1 | 0.00 | 0.00 | 0.00 | 86 | 1015.4 |
| 20260506040003 | 7 | 105 | 4.8 | 12.9 | 0.00 | 0.00 | 0.00 | 87 | 1015.5 |
| 20260506035503 | 7 | 102 | 3.2 | 11.3 | 0.00 | 0.00 | 0.00 | 87 | 1015.4 |
| 20260506035003 | 7 | 97 | 3.2 | 12.9 | 0.00 | 0.00 | 0.00 | 87 | 1015.4 |
| 20260506034716 | 7 | 91 | 3.2 | 12.9 | 0.00 | 0.00 | 0.00 | 88 | 1015.5 |
| 20260506034003 | 7 | 98 | 3.2 | 12.9 | 0.00 | 0.00 | 0.00 | 88 | 1015.6 |
| 20260506033718 | 7 | 98 | 3.2 | 12.9 | 0.00 | 0.00 | 0.00 | 88 | 1015.6 |
| 20260506033004 | 7 | 103 | 3.2 | 12.9 | 0.00 | 0.00 | 0.00 | 88 | 1015.6 |
| 20260506032503 | 7 | 106 | 4.8 | 11.3 | 0.00 | 0.00 | 0.00 | 88 | 1015.5 |
| 20260506032003 | 7 | 99 | 4.8 | 11.3 | 0.00 | 0.00 | 0.00 | 88 | 1015.7 |
| 20260506031503 | 7 | 97 | 3.2 | 12.9 | 0.00 | 0.00 | 0.00 | 89 | 1015.7 |
| 20260506031003 | 7 | 92 | 3.2 | 12.9 | 0.00 | 0.00 | 0.00 | 89 | 1015.7 |
| 20260506030503 | 7 | 89 | 3.2 | 19.3 | 0.00 | 0.00 | 0.00 | 89 | 1015.7 |
| 20260506030003 | 7 | 85 | 3.2 | 19.3 | 0.00 | 0.00 | 0.00 | 89 | 1015.8 |
| 20260506025503 | 7 | 86 | 3.2 | 11.3 | 0.00 | 0.00 | 0.00 | 89 | 1015.8 |
| 20260506025003 | 7 | 86 | 1.6 | 11.3 | 0.00 | 0.00 | 0.00 | 90 | 1015.8 |
| 20260506024719 | 7 | 94 | 3.2 | 8.0 | 0.00 | 0.00 | 0.00 | 90 | 1015.9 |
| 20260506024003 | 7 | 141 | 3.2 | 6.4 | 0.00 | 0.00 | 0.00 | 89 | 1015.9 |
| 20260506023718 | 7 | 146 | 1.6 | 6.4 | 0.00 | 0.00 | 0.00 | 89 | 1015.9 |
| 20260506023003 | 7 | 139 | 1.6 | 8.0 | 0.00 | 0.00 | 0.00 | 89 | 1015.9 |
| 20260506022503 | 7 | 106 | 1.6 | 8.0 | 0.00 | 0.00 | 0.00 | 89 | 1015.9 |
| 20260506022004 | 7 | 106 | 3.2 | 9.7 | 0.00 | 0.00 | 0.00 | 88 | 1015.8 |
| 20260506021504 | 7 | 108 | 1.6 | 9.7 | 0.00 | 0.00 | 0.00 | 88 | 1015.7 |
| 20260506021003 | 7 | 102 | 3.2 | 9.7 | 0.00 | 0.00 | 0.00 | 87 | 1015.7 |
| 20260506020719 | 7 | 104 | 3.2 | 11.3 | 0.00 | 0.00 | 0.00 | 87 | 1015.7 |
| 20260506020003 | 7 | 104 | 4.8 | 14.5 | 0.00 | 0.00 | 0.00 | 86 | 1015.9 |
| 20260506015717 | 7 | 103 | 4.8 | 14.5 | 0.00 | 0.00 | 0.00 | 86 | 1015.7 |
| 20260506015218 | 7 | 99 | 3.2 | 14.5 | 0.00 | 0.00 | 0.00 | 86 | 1015.7 |
| 20260506014503 | 8 | 91 | 3.2 | 14.5 | 0.00 | 0.00 | 0.00 | 85 | 1015.9 |
| 20260506014003 | 8 | 91 | 3.2 | 14.5 | 0.00 | 0.00 | 0.00 | 85 | 1015.9 |
| 20260506013503 | 8 | 110 | 3.2 | 11.3 | 0.00 | 0.00 | 0.00 | 84 | 1015.9 |
| 20260506013003 | 8 | 109 | 3.2 | 11.3 | 0.00 | 0.00 | 0.00 | 84 | 1016.0 |
| 20260506012503 | 8 | 97 | 3.2 | 8.0 | 0.00 | 0.00 | 0.00 | 84 | 1016.0 |
| 20260506012003 | 8 | 82 | 3.2 | 9.7 | 0.00 | 0.00 | 0.00 | 84 | 1016.0 |
| 20260506011503 | 8 | 85 | 3.2 | 11.3 | 0.00 | 0.00 | 0.00 | 84 | 1016.1 |
| 20260506011003 | 8 | 92 | 3.2 | 11.3 | 0.00 | 0.00 | 0.00 | 84 | 1016.1 |
| 20260506010503 | 8 | 93 | 3.2 | 11.3 | 0.00 | 0.00 | 0.00 | 83 | 1016.2 |
| 20260506010216 | 8 | 95 | 3.2 | 11.3 | 0.00 | 0.00 | 0.00 | 83 | 1016.2 |
| 20260506005503 | 8 | 69 | 1.6 | 6.4 | 0.00 | 0.00 | 0.00 | 82 | 1016.2 |
| 20260506005003 | 8 | 62 | 3.2 | 8.0 | 0.00 | 0.00 | 0.00 | 82 | 1016.1 |
| 20260506004504 | 8 | 64 | 3.2 | 8.0 | 0.00 | 0.00 | 0.00 | 82 | 1016.1 |
| 20260506004003 | 8 | 44 | 1.6 | 4.8 | 0.00 | 0.00 | 0.00 | 81 | 1016.2 |
| 20260506003503 | 8 | 44 | 1.6 | 4.8 | 0.00 | 0.00 | 0.00 | 81 | 1016.2 |
| 20260506003003 | 8 | 44 | 0.0 | 3.2 | 0.00 | 0.00 | 0.00 | 81 | 1016.3 |
| 20260506002719 | 8 | 29 | 1.6 | 4.8 | 0.00 | 0.00 | 0.00 | 81 | 1016.3 |
| 20260506002215 | 8 | 9 | 1.6 | 4.8 | 0.00 | 0.00 | 0.00 | 80 | 1016.3 |
| 20260506001503 | 8 | 351 | 0.0 | 4.8 | 0.00 | 0.00 | 0.00 | 80 | 1016.4 |
| 20260506001218 | 8 | 5 | 0.0 | 4.8 | 0.00 | 0.00 | 0.00 | 80 | 1016.3 |
| 20260506000719 | 8 | 1 | 1.6 | 6.4 | 0.00 | 0.00 | 0.00 | 80 | 1016.3 |
| 20260506000003 | 8 | 3 | 1.6 | 6.4 | 0.00 | 0.00 | 0.00 | 80 | 1016.4 |
| 20260505235716 | 8 | 19 | 0.0 | 3.2 | 0.00 | 0.00 | 0.00 | 80 | 1016.3 |
| 20260505235003 | 8 | 65 | 0.0 | 3.2 | 0.00 | 0.00 | 0.00 | 79 | 1016.4 |
| 20260505234503 | 7 | 360 | 1.6 | 6.4 | 0.00 | 0.00 | 0.00 | 79 | 1016.4 |
| 20260505234003 | 7 | 309 | 1.6 | 6.4 | 0.00 | 0.00 | 0.00 | 79 | 1016.5 |
| 20260505233503 | 7 | 316 | 1.6 | 8.0 | 0.00 | 0.00 | 0.00 | 79 | 1016.4 |
| 20260505233003 | 7 | 331 | 1.6 | 8.0 | 0.00 | 0.00 | 0.00 | 79 | 1016.4 |
| 20260505232718 | 7 | 335 | 1.6 | 8.0 | 0.00 | 0.00 | 0.00 | 79 | 1016.4 |
| 20260505232219 | 7 | 334 | 1.6 | 8.0 | 0.00 | 0.00 | 0.00 | 78 | 1016.5 |
| 20260505231503 | 7 | 326 | 1.6 | 6.4 | 0.00 | 0.00 | 0.00 | 78 | 1016.5 |
| 20260505231003 | 7 | 296 | 1.6 | 4.8 | 0.00 | 0.00 | 0.00 | 79 | 1016.6 |
| 20260505230503 | 7 | 282 | 1.6 | 6.4 | 0.00 | 0.00 | 0.00 | 79 | 1016.5 |
| 20260505230004 | 7 | 313 | 1.6 | 6.4 | 0.00 | 0.00 | 0.00 | 79 | 1016.5 |
| 20260505225504 | 7 | 324 | 1.6 | 6.4 | 0.00 | 0.00 | 0.00 | 79 | 1016.4 |
| 20260505225003 | 7 | 305 | 1.6 | 4.8 | 0.00 | 0.00 | 0.00 | 79 | 1016.6 |
| 20260505224503 | 7 | 298 | 1.6 | 6.4 | 0.00 | 0.00 | 0.00 | 78 | 1016.7 |
| 20260505224003 | 7 | 300 | 1.6 | 6.4 | 0.00 | 0.00 | 0.00 | 78 | 1016.7 |
| 20260505223503 | 7 | 299 | 1.6 | 4.8 | 0.00 | 0.00 | 0.00 | 78 | 1016.6 |
| 20260505223003 | 7 | 295 | 1.6 | 4.8 | 0.00 | 0.00 | 0.00 | 78 | 1016.6 |
| 20260505222503 | 7 | 313 | 1.6 | 8.0 | 0.00 | 0.00 | 0.00 | 77 | 1016.7 |
| 20260505222219 | 7 | 326 | 1.6 | 8.0 | 0.00 | 0.00 | 0.00 | 77 | 1016.7 |
| 20260505221503 | 7 | 345 | 3.2 | 8.0 | 0.00 | 0.00 | 0.00 | 77 | 1016.7 |
| 20260505221217 | 7 | 347 | 3.2 | 8.0 | 0.00 | 0.00 | 0.00 | 77 | 1016.6 |
| 20260505220503 | 7 | 329 | 3.2 | 9.7 | 0.00 | 0.00 | 0.00 | 76 | 1016.7 |
| 20260505220003 | 7 | 317 | 3.2 | 9.7 | 0.00 | 0.00 | 0.00 | 76 | 1016.6 |
| 20260505215503 | 7 | 330 | 3.2 | 14.5 | 0.00 | 0.00 | 0.00 | 76 | 1016.6 |
| 20260505215003 | 8 | 327 | 3.2 | 14.5 | 0.00 | 0.00 | 0.00 | 76 | 1016.6 |
| 20260505214503 | 8 | 324 | 4.8 | 12.9 | 0.00 | 0.00 | 0.00 | 76 | 1016.6 |
| 20260505214003 | 8 | 321 | 4.8 | 12.9 | 0.00 | 0.00 | 0.00 | 76 | 1016.7 |
| 20260505213503 | 8 | 318 | 4.8 | 14.5 | 0.00 | 0.00 | 0.00 | 75 | 1016.7 |
| 20260505213003 | 8 | 322 | 4.8 | 14.5 | 0.00 | 0.00 | 0.00 | 75 | 1016.7 |
| 20260505212503 | 8 | 311 | 3.2 | 12.9 | 0.00 | 0.00 | 0.00 | 75 | 1016.7 |
| 20260505212003 | 8 | 300 | 3.2 | 11.3 | 0.00 | 0.00 | 0.00 | 75 | 1016.7 |
| 20260505211720 | 8 | 307 | 4.8 | 19.3 | 0.00 | 0.00 | 0.00 | 75 | 1016.7 |
| 20260505211003 | 8 | 318 | 6.4 | 19.3 | 0.00 | 0.00 | 0.00 | 75 | 1016.6 |
| 20260505210503 | 8 | 322 | 4.8 | 12.9 | 0.00 | 0.00 | 0.00 | 75 | 1016.6 |
| 20260505210003 | 8 | 325 | 4.8 | 12.9 | 0.00 | 0.00 | 0.00 | 75 | 1016.5 |
| 20260505205719 | 8 | 331 | 4.8 | 14.5 | 0.00 | 0.00 | 0.00 | 75 | 1016.6 |
| 20260505205003 | 8 | 322 | 6.4 | 14.5 | 0.00 | 0.00 | 0.00 | 75 | 1016.5 |
| 20260505204503 | 8 | 318 | 4.8 | 12.9 | 0.00 | 0.00 | 0.00 | 75 | 1016.6 |
| 20260505204003 | 8 | 323 | 4.8 | 12.9 | 0.00 | 0.00 | 0.00 | 76 | 1016.5 |
| 20260505203503 | 8 | 323 | 4.8 | 11.3 | 0.00 | 0.00 | 0.00 | 76 | 1016.5 |
| 20260505203216 | 8 | 330 | 4.8 | 11.3 | 0.00 | 0.00 | 0.00 | 76 | 1016.4 |
| 20260505202503 | 8 | 323 | 4.8 | 17.7 | 0.00 | 0.00 | 0.00 | 76 | 1016.4 |
| 20260505202003 | 8 | 323 | 6.4 | 17.7 | 0.00 | 0.00 | 0.00 | 75 | 1016.4 |
| 20260505201503 | 8 | 327 | 6.4 | 17.7 | 0.00 | 0.00 | 0.00 | 75 | 1016.4 |
| 20260505201216 | 8 | 327 | 6.4 | 17.7 | 0.00 | 0.00 | 0.00 | 75 | 1016.4 |
| 20260505200503 | 9 | 329 | 6.4 | 17.7 | 0.00 | 0.00 | 0.00 | 73 | 1016.3 |
| 20260505200003 | 9 | 332 | 6.4 | 17.7 | 0.00 | 0.00 | 0.00 | 72 | 1016.3 |
| 20260505195503 | 9 | 328 | 6.4 | 20.9 | 0.00 | 0.00 | 0.00 | 72 | 1016.2 |
| 20260505195003 | 9 | 323 | 6.4 | 20.9 | 0.00 | 0.00 | 0.00 | 73 | 1016.3 |
| 20260505194717 | 9 | 321 | 6.4 | 20.9 | 0.00 | 0.00 | 0.00 | 72 | 1016.2 |
| 20260505194003 | 9 | 324 | 6.4 | 20.9 | 0.00 | 0.00 | 0.00 | 72 | 1016.1 |
| 20260505193503 | 10 | 319 | 6.4 | 20.9 | 0.00 | 0.00 | 0.00 | 72 | 1016.1 |
| 20260505193216 | 10 | 316 | 6.4 | 14.5 | 0.00 | 0.00 | 0.00 | 72 | 1016.1 |
| 20260505192503 | 10 | 327 | 6.4 | 20.9 | 0.00 | 0.00 | 0.00 | 72 | 1016.1 |
| 20260505192218 | 10 | 328 | 6.4 | 20.9 | 0.00 | 0.00 | 0.00 | 72 | 1016.1 |
| 20260505191503 | 10 | 319 | 6.4 | 19.3 | 0.00 | 0.00 | 0.00 | 71 | 1016.0 |
| 20260505191003 | 10 | 313 | 6.4 | 19.3 | 0.00 | 0.00 | 0.00 | 72 | 1015.9 |
| 20260505190503 | 10 | 326 | 8.0 | 19.3 | 0.00 | 0.00 | 0.00 | 71 | 1015.9 |
| 20260505190218 | 10 | 327 | 8.0 | 19.3 | 0.00 | 0.00 | 0.00 | 71 | 1015.9 |
| 20260505185503 | 10 | 327 | 6.4 | 17.7 | 0.00 | 0.00 | 0.00 | 71 | 1016.0 |
| 20260505185003 | 10 | 330 | 8.0 | 20.9 | 0.00 | 0.00 | 0.00 | 71 | 1015.8 |
| 20260505184503 | 10 | 328 | 8.0 | 20.9 | 0.00 | 0.00 | 0.00 | 71 | 1016.0 |
| 20260505184003 | 11 | 327 | 6.4 | 16.1 | 0.00 | 0.00 | 0.00 | 71 | 1015.9 |
| 20260505183503 | 11 | 322 | 6.4 | 17.7 | 0.00 | 0.00 | 0.00 | 72 | 1015.8 |
| 20260505183003 | 11 | 327 | 8.0 | 22.5 | 0.00 | 0.00 | 0.00 | 72 | 1015.9 |
| 20260505182503 | 11 | 333 | 6.4 | 22.5 | 0.00 | 0.00 | 0.00 | 72 | 1015.9 |
| 20260505182003 | 11 | 335 | 6.4 | 16.1 | 0.00 | 0.00 | 0.00 | 72 | 1015.8 |
| 20260505181503 | 11 | 342 | 6.4 | 20.9 | 0.00 | 0.00 | 0.00 | 71 | 1016.0 |
| 20260505181003 | 11 | 338 | 6.4 | 20.9 | 0.00 | 0.00 | 0.00 | 69 | 1015.9 |
| 20260505180503 | 11 | 335 | 6.4 | 20.9 | 0.00 | 0.00 | 0.00 | 68 | 1015.9 |
| 20260505180003 | 12 | 337 | 6.4 | 20.9 | 0.00 | 0.00 | 0.00 | 67 | 1015.8 |
| 20260505175503 | 12 | 337 | 6.4 | 17.7 | 0.00 | 0.00 | 0.00 | 67 | 1015.9 |
| 20260505175003 | 12 | 345 | 6.4 | 17.7 | 0.00 | 0.00 | 0.00 | 66 | 1015.9 |
| 20260505174503 | 12 | 351 | 6.4 | 19.3 | 0.00 | 0.00 | 0.00 | 67 | 1015.9 |
| 20260505174003 | 12 | 345 | 6.4 | 19.3 | 0.00 | 0.00 | 0.00 | 66 | 1015.9 |
| 20260505173503 | 12 | 349 | 6.4 | 17.7 | 0.00 | 0.00 | 0.00 | 66 | 1016.0 |
| 20260505173219 | 12 | 351 | 6.4 | 17.7 | 0.00 | 0.00 | 0.00 | 65 | 1015.9 |
| 20260505172716 | 12 | 355 | 6.4 | 16.1 | 0.00 | 0.00 | 0.00 | 64 | 1015.9 |
| 20260505172003 | 12 | 354 | 6.4 | 22.5 | 0.00 | 0.00 | 0.00 | 64 | 1016.0 |
| 20260505171503 | 12 | 343 | 6.4 | 22.5 | 0.00 | 0.00 | 0.00 | 64 | 1016.0 |
| 20260505171219 | 12 | 341 | 6.4 | 22.5 | 0.00 | 0.00 | 0.00 | 64 | 1016.0 |
| 20260505170503 | 12 | 348 | 6.4 | 19.3 | 0.00 | 0.00 | 0.00 | 63 | 1016.0 |
| 20260505170003 | 13 | 348 | 4.8 | 16.1 | 0.00 | 0.00 | 0.00 | 62 | 1015.9 |
| 20260505165718 | 13 | 345 | 4.8 | 16.1 | 0.00 | 0.00 | 0.00 | 62 | 1016.0 |
| 20260505165003 | 13 | 7 | 4.8 | 20.9 | 0.00 | 0.00 | 0.00 | 64 | 1015.9 |
| 20260505164503 | 13 | 7 | 4.8 | 14.5 | 0.00 | 0.00 | 0.00 | 64 | 1015.9 |
| 20260505164003 | 12 | 344 | 6.4 | 20.9 | 0.00 | 0.00 | 0.00 | 65 | 1015.9 |
| 20260505163718 | 12 | 343 | 6.4 | 20.9 | 0.00 | 0.00 | 0.00 | 65 | 1015.8 |
| 20260505163003 | 13 | 1 | 4.8 | 12.9 | 0.00 | 0.00 | 0.00 | 63 | 1015.9 |
| 20260505162716 | 13 | 13 | 4.8 | 16.1 | 0.00 | 0.00 | 0.00 | 63 | 1015.9 |
| 20260505162216 | 13 | 5 | 6.4 | 19.3 | 0.00 | 0.00 | 0.00 | 63 | 1016.0 |
| 20260505161718 | 13 | 357 | 6.4 | 19.3 | 0.00 | 0.00 | 0.00 | 61 | 1016.0 |
| 20260505161003 | 13 | 9 | 6.4 | 17.7 | 0.00 | 0.00 | 0.00 | 61 | 1016.0 |
| 20260505160503 | 13 | 354 | 4.8 | 16.1 | 0.00 | 0.00 | 0.00 | 61 | 1015.9 |
| 20260505153003 | 12 | 331 | 6.4 | 17.7 | 0.00 | 0.00 | 0.00 | 61 | 1016.0 |
| 20260505152503 | 12 | 326 | 6.4 | 17.7 | 0.00 | 0.00 | 0.00 | 62 | 1016.0 |
| 20260505152003 | 12 | 338 | 6.4 | 19.3 | 0.00 | 0.00 | 0.00 | 61 | 1016.1 |
| 20260505151717 | 13 | 342 | 6.4 | 19.3 | 0.00 | 0.00 | 0.00 | 62 | 1016.1 |
| 20260505151218 | 13 | 331 | 4.8 | 19.3 | 0.00 | 0.00 | 0.00 | 62 | 1016.1 |
| 20260505150503 | 13 | 333 | 4.8 | 17.7 | 0.00 | 0.00 | 0.00 | 62 | 1016.0 |
| 20260505140503 | 13 | 354 | 6.4 | 19.3 | 0.00 | 0.00 | 0.00 | 58 | 1016.3 |
| 20260505125003 | 13 | 5 | 6.4 | 16.1 | 0.00 | 0.00 | 0.00 | 67 | 1016.3 |
| 20260505124503 | 12 | 352 | 6.4 | 19.3 | 0.00 | 0.00 | 0.00 | 66 | 1016.3 |
| 20260505124003 | 12 | 350 | 8.0 | 19.3 | 0.00 | 0.00 | 0.00 | 66 | 1016.3 |
| 20260505123503 | 12 | 328 | 6.4 | 19.3 | 0.00 | 0.00 | 0.00 | 65 | 1016.3 |
| 20260505123003 | 12 | 326 | 6.4 | 17.7 | 0.00 | 0.00 | 0.00 | 62 | 1016.3 |
| 20260505122503 | 12 | 354 | 6.4 | 17.7 | 0.00 | 0.00 | 0.00 | 63 | 1016.4 |
| 20260505122003 | 13 | 347 | 8.0 | 24.1 | 0.00 | 0.00 | 0.00 | 63 | 1016.3 |
| 20260505121503 | 12 | 332 | 8.0 | 24.1 | 0.00 | 0.00 | 0.00 | 63 | 1016.3 |
| 20260505121003 | 12 | 339 | 8.0 | 19.3 | 0.00 | 0.00 | 0.00 | 63 | 1016.3 |
| 20260505120718 | 12 | 356 | 8.0 | 17.7 | 0.00 | 0.00 | 0.00 | 60 | 1016.3 |
| 20260505120004 | 12 | 31 | 8.0 | 19.3 | 0.00 | 0.00 | 0.00 | 61 | 1016.3 |
| 20260505115503 | 12 | 23 | 8.0 | 22.5 | 0.00 | 0.00 | 0.00 | 63 | 1016.3 |
| 20260505115003 | 12 | 14 | 6.4 | 22.5 | 0.00 | 0.00 | 0.00 | 61 | 1016.3 |
| 20260505114503 | 12 | 4 | 6.4 | 17.7 | 0.00 | 0.00 | 0.00 | 66 | 1016.3 |
| 20260505114003 | 12 | 360 | 6.4 | 20.9 | 0.00 | 0.00 | 0.00 | 65 | 1016.3 |
| 20260505113504 | 12 | 1 | 6.4 | 20.9 | 0.00 | 0.00 | 0.00 | 66 | 1016.3 |
| 20260505113003 | 12 | 338 | 6.4 | 19.3 | 0.00 | 0.00 | 0.00 | 69 | 1016.4 |
| 20260505112503 | 12 | 338 | 8.0 | 19.3 | 0.00 | 0.00 | 0.00 | 66 | 1016.4 |
| 20260505112003 | 12 | 358 | 8.0 | 20.9 | 0.00 | 0.00 | 0.00 | 69 | 1016.4 |
| 20260505111503 | 12 | 349 | 8.0 | 20.9 | 0.00 | 0.00 | 0.00 | 70 | 1016.4 |
| 20260505111003 | 12 | 337 | 6.4 | 17.7 | 0.00 | 0.00 | 0.00 | 69 | 1016.5 |
| 20260505110718 | 12 | 333 | 6.4 | 16.1 | 0.00 | 0.00 | 0.00 | 69 | 1016.5 |
| 20260505102003 | 11 | 348 | 6.4 | 20.9 | 0.00 | 0.00 | 0.00 | 71 | 1016.5 |
| 20260505101503 | 11 | 344 | 8.0 | 20.9 | 0.00 | 0.00 | 0.00 | 70 | 1016.5 |
| 20260505101003 | 11 | 338 | 6.4 | 16.1 | 0.00 | 0.00 | 0.00 | 69 | 1016.6 |
| 20260505100503 | 11 | 339 | 6.4 | 20.9 | 0.00 | 0.00 | 0.00 | 65 | 1016.6 |
| 20260505100003 | 11 | 337 | 6.4 | 20.9 | 0.00 | 0.00 | 0.00 | 68 | 1016.5 |
| 20260505095503 | 11 | 340 | 4.8 | 19.3 | 0.00 | 0.00 | 0.00 | 68 | 1016.6 |
| 20260505095003 | 11 | 352 | 4.8 | 19.3 | 0.00 | 0.00 | 0.00 | 72 | 1016.6 |
| 20260505094503 | 11 | 357 | 6.4 | 19.3 | 0.00 | 0.00 | 0.00 | 75 | 1016.5 |
| 20260505094003 | 11 | 2 | 6.4 | 19.3 | 0.00 | 0.00 | 0.00 | 74 | 1016.6 |
| 20260505093503 | 11 | 349 | 6.4 | 19.3 | 0.00 | 0.00 | 0.00 | 74 | 1016.6 |
| 20260505093003 | 10 | 333 | 6.4 | 19.3 | 0.00 | 0.00 | 0.00 | 75 | 1016.5 |
| 20260505092503 | 11 | 324 | 6.4 | 19.3 | 0.00 | 0.00 | 0.00 | 75 | 1016.6 |
| 20260505092003 | 11 | 325 | 6.4 | 19.3 | 0.00 | 0.00 | 0.00 | 74 | 1016.5 |
| 20260505091503 | 11 | 343 | 6.4 | 19.3 | 0.00 | 0.00 | 0.00 | 76 | 1016.5 |
| 20260505091003 | 11 | 349 | 4.8 | 19.3 | 0.00 | 0.00 | 0.00 | 76 | 1016.5 |
| 20260505090717 | 11 | 2 | 4.8 | 19.3 | 0.00 | 0.00 | 0.00 | 76 | 1016.5 |
| 20260505090003 | 11 | 351 | 4.8 | 14.5 | 0.00 | 0.00 | 0.00 | 72 | 1016.5 |
| 20260505085503 | 10 | 346 | 6.4 | 19.3 | 0.00 | 0.00 | 0.00 | 77 | 1016.3 |
| 20260505085003 | 10 | 348 | 4.8 | 19.3 | 0.00 | 0.00 | 0.00 | 78 | 1016.4 |
| 20260505084717 | 10 | 351 | 4.8 | 17.7 | 0.00 | 0.00 | 0.00 | 78 | 1016.4 |
| 20260505084003 | 10 | 335 | 6.4 | 22.5 | 0.00 | 0.00 | 0.00 | 80 | 1016.5 |
| 20260505083719 | 10 | 330 | 6.4 | 22.5 | 0.00 | 0.00 | 0.00 | 80 | 1016.4 |
| 20260505083216 | 10 | 342 | 6.4 | 22.5 | 0.00 | 0.00 | 0.00 | 79 | 1016.4 |
| 20260505082503 | 10 | 320 | 6.4 | 16.1 | 0.00 | 0.00 | 0.00 | 80 | 1016.4 |
| 20260505082003 | 10 | 299 | 4.8 | 14.5 | 0.00 | 0.00 | 0.00 | 80 | 1016.4 |
| 20260505081503 | 10 | 311 | 4.8 | 16.1 | 0.00 | 0.00 | 0.00 | 82 | 1016.4 |
| 20260505081215 | 10 | 319 | 4.8 | 16.1 | 0.00 | 0.00 | 0.00 | 82 | 1016.5 |
| 20260505080503 | 10 | 309 | 3.2 | 16.1 | 0.00 | 0.00 | 0.00 | 82 | 1016.4 |
| 20260505080218 | 10 | 314 | 3.2 | 9.7 | 0.00 | 0.00 | 0.00 | 83 | 1016.3 |
| 20260505075503 | 10 | 330 | 3.2 | 16.1 | 0.00 | 0.00 | 0.00 | 85 | 1016.3 |
| 20260505075003 | 10 | 337 | 4.8 | 19.3 | 0.00 | 0.00 | 0.00 | 85 | 1016.3 |
| 20260505074503 | 9 | 339 | 4.8 | 19.3 | 0.00 | 0.00 | 0.00 | 85 | 1016.2 |
| 20260505074003 | 9 | 321 | 4.8 | 14.5 | 0.00 | 0.00 | 0.00 | 85 | 1016.3 |
| 20260505073503 | 9 | 325 | 4.8 | 16.1 | 0.00 | 0.00 | 0.00 | 85 | 1016.2 |